This is the latest recevied weather packets stored in our database for station/object F8KHU-13. If no packets are shown the sender has not sent any weather packets the latest 10 day(s).
| Time | Temp. | Humidity | Pressure | Rain* | Wind** | Luminosity | Snow |
|---|---|---|---|---|---|---|---|
| 1777821938 | 16.67° C | 31% | 1013.3 hPa | 0 mm | - | 0 W/m² | - |
| 1777821918 | 16.67° C | 31% | 1013.4 hPa | 0 mm | - | 0 W/m² | - |
| 1777821898 | 16.67° C | 31% | 1013.3 hPa | 0 mm | - | 0 W/m² | - |
| 1777821034 | 16.67° C | 31% | 1013.4 hPa | 0 mm | - | 0 W/m² | - |
| 1777821013 | 16.67° C | 31% | 1013.4 hPa | 0 mm | - | 0 W/m² | - |
| 1777820994 | 16.11° C | 31% | 1013.4 hPa | 0 mm | - | 0 W/m² | - |
| 1777820134 | 17.78° C | 29% | 1013.6 hPa | 0 mm | - | 0 W/m² | - |
| 1777820114 | 17.78° C | 29% | 1013.5 hPa | 0 mm | - | 0 W/m² | - |
| 1777820094 | 17.78° C | 29% | 1013.5 hPa | 0 mm | - | 0 W/m² | - |
| 1777819234 | 20° C | 27% | 1013.4 hPa | 0 mm | - | 0 W/m² | - |
| 1777819214 | 20° C | 27% | 1013.4 hPa | 0 mm | - | 0 W/m² | - |
| 1777819193 | 20° C | 27% | 1013.4 hPa | 0 mm | - | 0 W/m² | - |
| 1777818334 | 19.44° C | 28% | 1013.3 hPa | 0 mm | - | 0 W/m² | - |
| 1777818314 | 19.44° C | 28% | 1013.4 hPa | 0 mm | - | 0 W/m² | - |
| 1777818294 | 19.44° C | 28% | 1013.3 hPa | 0 mm | - | 0 W/m² | - |
| 1777817434 | 21.11° C | 27% | 1013.5 hPa | 0 mm | - | 0 W/m² | - |
| 1777817414 | 21.11° C | 27% | 1013.4 hPa | 0 mm | - | 0 W/m² | - |
| 1777817394 | 21.11° C | 27% | 1013.4 hPa | 0 mm | - | 0 W/m² | - |
| 1777816514 | 22.78° C | 26% | 1013.5 hPa | 0 mm | - | 0 W/m² | - |
| 1777816494 | 22.78° C | 26% | 1013.5 hPa | 0 mm | - | 0 W/m² | - |
| 1777815634 | 19.44° C | 28% | 1013.7 hPa | 0 mm | - | 0 W/m² | - |
| 1777815614 | 19.44° C | 28% | 1013.8 hPa | 0 mm | - | 0 W/m² | - |
| 1777815594 | 19.44° C | 28% | 1013.7 hPa | 0 mm | - | 0 W/m² | - |
| 1777814734 | 18.33° C | 29% | 1013.8 hPa | 0 mm | - | 0 W/m² | - |
| 1777814714 | 18.33° C | 29% | 1013.8 hPa | 0 mm | - | 0 W/m² | - |
* Rain latest hour (hover to see other rain measurements)
** Current wind speed in m/s (hover to see current wind gust speed)